Regional Weather Roundup
Issued by NWS

Home | Current Version | Previous Version | Graphics & Text | Print | Product List | Glossary On
Versions: 1 2 3 4 5 6 7 8 9 10 11 12 13 14 15 16 17 18 19 20 21 22 23 24 25 26 27 28 29 30 31 32 33 34 35 36 37 38 39 40 41 42 43 44 45 46 47 48 49 50
000
ASUS43 KLSX 081457
RWRMO

WEATHER SUMMARY FOR MISSOURI
NATIONAL WEATHER SERVICE SPRINGFIELD MO
900 AM CST THU DEC 08 2016

NOTE: "FAIR" INDICATES FEW OR NO CLOUDS BELOW 12,000 FEET WITH NO
       SIGNIFICANT WEATHER AND/OR OBSTRUCTIONS TO VISIBILITY.
       CURRENT SKY AND/OR WEATHER CONDITIONS ARE NOT AVAILABLE FOR
       CHILLICOTHE AND FARMINGTON.

MOZ001>031-035>038-043-044-053-054-081600-
...NORTHERN AND WESTERN MISSOURI...

CITY           SKY/WX    TMP DP  RH WIND       PRES   REMARKS
KANSAS CTY INT SUNNY     16   5  62 NW16G22   30.60R WCI   1
LEE`S SUMMIT   SUNNY     17   7  64 W16       30.59R WCI   2
ST JOSEPH      SUNNY     16   6  65 NW14      30.62R WCI   2
CHILLICOTHE      N/A     17   7  64 NW16G24   30.57R WCI   2

$$
MOZ066>068-077>081-088>096-101>105-081600-
...SOUTHWEST MISSOURI...

CITY           SKY/WX    TMP DP  RH WIND       PRES   REMARKS
SPRINGFIELD    MOSUNNY   18   9  68 NW12      30.57R WCI   5
JOPLIN         SUNNY     19  10  68 N17       30.65R WCI   4
BRANSON        PTSUNNY   23   9  54 W7        30.57R WCI  15

$$
MOZ032>034-039>042-045>050-055>058-069>072-081600-
...CENTRAL MISSOURI...

CITY           SKY/WX    TMP DP  RH WIND       PRES   REMARKS
COLUMBIA       NOT AVBL
JEFFERSON CITY SUNNY     20   9  62 W16       30.57R WCI   6
ROLLA          SUNNY     19  10  68 W17       30.50R WCI   4
SEDALIA        SUNNY     19   9  65 W14       30.58R WCI   6
WARRENSBURG    SUNNY     19   9  63 W10       30.59R WCI   8

$$
MOZ051-052-059>065-081600-
...EAST CENTRAL MISSOURI...

CITY           SKY/WX    TMP DP  RH WIND       PRES   REMARKS
ST LOUIS INTL  MOSUNNY   24  10  55 W22G29    30.48R WCI   9

$$
MOZ072>076-082>087-097>100-106>115-081600-
...SOUTH CENTRAL AND SOUTHEAST MISSOURI...

CITY           SKY/WX    TMP DP  RH WIND       PRES   REMARKS
CAPE GIRARDEAU SUNNY     27  12  53 NW12      30.50R WCI  17
POPLAR BLUFF   CLOUDY    27  12  53 NW15      30.53R WCI  15
WEST PLAINS    MOSUNNY   23  10  57 NW8       30.53R WCI  14

$$



USA.gov is the U.S. government's official web portal to all federal, state and local government web resources and services.